Location: Arcones
(41.1182°N, 3.7238°W)
Time: 08:27:46
(UTC+00:00)

IRAS Rocket - Pass Details

Date: 23 March 2026
Orbit: 845 x 876 km, 100.1° (Epoch: 18 April)

Event Time Altitude Azimuth Distance (km) Brightness Sun altitude
Exits shadow 20:41:05 - 191° (S) 3,264 7.1 -24.6°
Reaches altitude 10° 20:43:13 10° 200° (SSW) 2,509 6.6 -25.0°
Maximum altitude 20:48:08 32° 262° (W) 1,448 5.8 -25.8°
Drops below altitude 10° 20:53:05 10° 325° (NW) 2,508 7.5 -26.6°
Sets 20:55:43 0° 335° (NNW) 3,444 8.2 -27.1°
